Year,Month,Day,Hour,Minute,Value (Times are PST for temperature in C)
2012,06,08,00,00,8.80
2012,06,08,00,01,8.80
2012,06,08,00,02,8.80
2012,06,08,00,03,8.80
2012,06,08,00,04,8.80
2012,06,08,00,05,8.80
2012,06,08,00,06,8.80
2012,06,08,00,07,8.80
2012,06,08,00,08,8.80
2012,06,08,00,09,8.80
2012,06,08,00,10,8.80
2012,06,08,00,11,8.80
2012,06,08,00,12,8.80
2012,06,08,00,13,8.80
2012,06,08,00,14,8.80
2012,06,08,00,15,8.70
2012,06,08,00,16,8.70
2012,06,08,00,17,8.70
2012,06,08,00,18,8.70
2012,06,08,00,19,8.70
2012,06,08,00,20,8.70
2012,06,08,00,21,8.70
2012,06,08,00,22,8.70
2012,06,08,00,23,8.70
2012,06,08,00,24,8.70
2012,06,08,00,25,8.70
2012,06,08,00,26,8.70
2012,06,08,00,27,8.80
2012,06,08,00,28,8.80
2012,06,08,00,29,8.80
2012,06,08,00,30,8.80
2012,06,08,00,31,8.80
2012,06,08,00,32,8.80
2012,06,08,00,33,8.80
2012,06,08,00,34,8.80
2012,06,08,00,35,8.80
2012,06,08,00,36,8.80
2012,06,08,00,37,8.80
2012,06,08,00,38,8.80
2012,06,08,00,39,8.80
2012,06,08,00,40,8.90
2012,06,08,00,41,8.90
2012,06,08,00,42,8.90
2012,06,08,00,43,8.90
2012,06,08,00,44,8.90
2012,06,08,00,45,8.90
2012,06,08,00,46,8.90
2012,06,08,00,47,9.00
2012,06,08,00,48,8.90
2012,06,08,00,49,8.90
2012,06,08,00,50,9.00
2012,06,08,00,51,9.00
2012,06,08,00,52,9.00
2012,06,08,00,53,8.90
2012,06,08,00,54,8.90
2012,06,08,00,55,8.90
2012,06,08,00,56,8.90
2012,06,08,00,57,8.90
2012,06,08,00,58,8.90
2012,06,08,00,59,8.80
2012,06,08,01,00,8.80
2012,06,08,01,01,8.80
2012,06,08,01,02,8.80
2012,06,08,01,03,8.80
2012,06,08,01,04,8.80
2012,06,08,01,05,8.80
2012,06,08,01,06,8.90
2012,06,08,01,07,9.00
2012,06,08,01,08,9.00
2012,06,08,01,09,9.10
2012,06,08,01,10,9.10
2012,06,08,01,11,9.20
2012,06,08,01,12,9.20
2012,06,08,01,13,9.30
2012,06,08,01,14,9.30
2012,06,08,01,15,9.30
2012,06,08,01,16,9.30
2012,06,08,01,17,9.30
2012,06,08,01,18,9.40
2012,06,08,01,19,9.30
2012,06,08,01,20,9.30
2012,06,08,01,21,9.30
2012,06,08,01,22,9.30
2012,06,08,01,23,9.30
2012,06,08,01,24,9.30
2012,06,08,01,25,9.30
2012,06,08,01,26,9.20
2012,06,08,01,27,9.20
2012,06,08,01,28,9.20
2012,06,08,01,29,9.20
2012,06,08,01,30,9.20
2012,06,08,01,31,9.20
2012,06,08,01,32,9.20
2012,06,08,01,33,9.10
2012,06,08,01,34,9.10
2012,06,08,01,35,9.10
2012,06,08,01,36,9.10
2012,06,08,01,37,9.10
2012,06,08,01,38,9.10
2012,06,08,01,39,9.10
2012,06,08,01,40,9.00
2012,06,08,01,41,9.00
2012,06,08,01,42,9.00
2012,06,08,01,43,9.00
2012,06,08,01,44,8.90
2012,06,08,01,45,8.90
2012,06,08,01,46,9.00
2012,06,08,01,47,9.00
2012,06,08,01,48,9.00
2012,06,08,01,49,9.00
2012,06,08,01,50,9.00
2012,06,08,01,51,8.90
2012,06,08,01,52,8.90
2012,06,08,01,53,8.90
2012,06,08,01,54,8.90
2012,06,08,01,55,8.90
2012,06,08,01,56,8.90
2012,06,08,01,57,8.90
2012,06,08,01,58,8.80
2012,06,08,01,59,8.80
2012,06,08,02,00,8.80
2012,06,08,02,01,8.80
2012,06,08,02,02,8.70
2012,06,08,02,03,8.70
2012,06,08,02,04,8.60
2012,06,08,02,05,8.60
2012,06,08,02,06,8.60
2012,06,08,02,07,8.60
2012,06,08,02,08,8.60
2012,06,08,02,09,8.50
2012,06,08,02,10,8.40
2012,06,08,02,11,8.40
2012,06,08,02,12,8.40
2012,06,08,02,13,8.30
2012,06,08,02,14,8.30
2012,06,08,02,15,8.30
2012,06,08,02,16,8.30
2012,06,08,02,17,8.20
2012,06,08,02,18,8.20
2012,06,08,02,19,8.20
2012,06,08,02,20,8.20
2012,06,08,02,21,8.10
2012,06,08,02,22,8.10
2012,06,08,02,23,8.00
2012,06,08,02,24,8.00
2012,06,08,02,25,7.90
2012,06,08,02,26,7.90
2012,06,08,02,27,7.80
2012,06,08,02,28,7.80
2012,06,08,02,29,7.80
2012,06,08,02,30,7.70
2012,06,08,02,31,7.70
2012,06,08,02,32,7.70
2012,06,08,02,33,7.70
2012,06,08,02,34,7.70
2012,06,08,02,35,7.70
2012,06,08,02,36,7.70
2012,06,08,02,37,7.70
2012,06,08,02,38,7.60
2012,06,08,02,39,7.60
2012,06,08,02,40,7.60
2012,06,08,02,41,7.60
2012,06,08,02,42,7.60
2012,06,08,02,43,7.50
2012,06,08,02,44,7.50
2012,06,08,02,45,7.50
2012,06,08,02,46,7.40
2012,06,08,02,47,7.40
2012,06,08,02,48,7.40
2012,06,08,02,49,7.40
2012,06,08,02,50,7.30
2012,06,08,02,51,7.30
2012,06,08,02,52,7.20
2012,06,08,02,53,7.20
2012,06,08,02,54,7.20
2012,06,08,02,55,7.10
2012,06,08,02,56,7.10
2012,06,08,02,57,7.10
2012,06,08,02,58,7.10
2012,06,08,02,59,7.00
2012,06,08,03,00,7.00
2012,06,08,03,01,7.00
2012,06,08,03,02,7.10
2012,06,08,03,03,7.00
2012,06,08,03,04,7.00
2012,06,08,03,05,7.00
2012,06,08,03,06,6.90
2012,06,08,03,07,6.90
2012,06,08,03,08,6.90
2012,06,08,03,09,6.80
2012,06,08,03,10,6.80
2012,06,08,03,11,6.80
2012,06,08,03,12,6.80
2012,06,08,03,13,6.70
2012,06,08,03,14,6.70
2012,06,08,03,15,6.70
2012,06,08,03,16,6.70
2012,06,08,03,17,6.60
2012,06,08,03,18,6.60
2012,06,08,03,19,6.60
2012,06,08,03,20,6.60
2012,06,08,03,21,6.50
2012,06,08,03,22,6.50
2012,06,08,03,23,6.50
2012,06,08,03,24,6.50
2012,06,08,03,25,6.50
2012,06,08,03,26,6.50
2012,06,08,03,27,6.50
2012,06,08,03,28,6.60
2012,06,08,03,29,6.60
2012,06,08,03,30,6.60
2012,06,08,03,31,6.70
2012,06,08,03,32,6.70
2012,06,08,03,33,6.80
2012,06,08,03,34,6.80
2012,06,08,03,35,6.70
2012,06,08,03,36,6.70
2012,06,08,03,37,6.70
2012,06,08,03,38,6.60
2012,06,08,03,39,6.60
2012,06,08,03,40,6.60
2012,06,08,03,41,6.60
2012,06,08,03,42,6.60
2012,06,08,03,43,6.60
2012,06,08,03,44,6.60
2012,06,08,03,45,6.60
2012,06,08,03,46,6.60
2012,06,08,03,47,6.70
2012,06,08,03,48,6.70
2012,06,08,03,49,6.80
2012,06,08,03,50,6.80
2012,06,08,03,51,6.80
2012,06,08,03,52,6.80
2012,06,08,03,53,6.80
2012,06,08,03,54,6.80
2012,06,08,03,55,6.80
2012,06,08,03,56,6.80
2012,06,08,03,57,6.80
2012,06,08,03,58,6.80
2012,06,08,03,59,6.80
2012,06,08,04,00,6.80
2012,06,08,04,01,6.80
2012,06,08,04,02,6.80
2012,06,08,04,03,6.80
2012,06,08,04,04,6.80
2012,06,08,04,37,6.90
2012,06,08,04,38,7.00
2012,06,08,04,39,7.00
2012,06,08,04,40,7.00
2012,06,08,04,41,7.00
2012,06,08,04,42,7.10
2012,06,08,04,43,7.10
2012,06,08,04,44,7.20
2012,06,08,04,45,7.10
2012,06,08,04,46,7.10
2012,06,08,04,47,7.10
2012,06,08,04,48,7.10
2012,06,08,04,49,7.00
2012,06,08,04,50,7.00
2012,06,08,04,51,7.00
2012,06,08,04,52,7.00
2012,06,08,04,53,7.00
2012,06,08,04,54,6.90
2012,06,08,04,55,6.90
2012,06,08,04,56,6.90
2012,06,08,04,57,6.90
2012,06,08,04,58,6.90
2012,06,08,04,59,6.90
2012,06,08,05,00,6.90
2012,06,08,05,01,6.90
2012,06,08,05,02,6.90
2012,06,08,05,03,6.80
2012,06,08,05,04,6.80
2012,06,08,05,05,6.80
2012,06,08,05,06,6.80
2012,06,08,05,07,6.80
2012,06,08,05,08,6.80
2012,06,08,05,09,6.80
2012,06,08,05,10,6.80
2012,06,08,05,11,6.80
2012,06,08,05,12,6.80
2012,06,08,05,13,6.80
2012,06,08,05,14,6.80
2012,06,08,05,15,6.80
2012,06,08,05,16,6.80
2012,06,08,05,17,6.80
2012,06,08,05,18,6.80
2012,06,08,05,19,6.80
2012,06,08,05,20,6.80
2012,06,08,05,21,6.80
2012,06,08,05,22,6.80
2012,06,08,05,23,6.80
2012,06,08,05,24,6.80
2012,06,08,05,25,6.80
2012,06,08,05,26,6.70
2012,06,08,05,27,6.70
2012,06,08,05,28,6.80
2012,06,08,05,29,6.80
2012,06,08,05,30,6.80
2012,06,08,05,31,6.80
2012,06,08,05,32,6.80
2012,06,08,05,33,6.80
2012,06,08,05,34,6.80
2012,06,08,05,35,6.80
2012,06,08,05,36,6.80
2012,06,08,05,37,6.80
2012,06,08,05,38,6.80
2012,06,08,05,39,6.80
2012,06,08,05,40,6.90
2012,06,08,05,41,6.90
2012,06,08,05,42,6.90
2012,06,08,05,43,6.90
2012,06,08,05,44,6.90
2012,06,08,05,45,7.00
2012,06,08,05,46,7.00
2012,06,08,05,47,7.00
2012,06,08,05,48,7.00
2012,06,08,05,49,7.00
2012,06,08,05,50,7.00
2012,06,08,05,51,7.00
2012,06,08,05,52,7.00
2012,06,08,05,53,7.00
2012,06,08,05,54,7.00
2012,06,08,05,55,7.00
2012,06,08,05,56,7.00
2012,06,08,05,57,7.00
2012,06,08,05,58,7.00
2012,06,08,05,59,7.00
2012,06,08,06,00,7.10
2012,06,08,06,01,7.10
2012,06,08,06,02,7.10
2012,06,08,06,03,7.10
2012,06,08,06,04,7.10
2012,06,08,06,05,7.10
2012,06,08,06,06,7.10
2012,06,08,06,07,7.10
2012,06,08,06,08,7.10
2012,06,08,06,09,7.10
2012,06,08,06,10,7.10
2012,06,08,06,11,7.10
2012,06,08,06,12,7.10
2012,06,08,06,13,7.10
2012,06,08,06,14,7.10
2012,06,08,06,15,7.10
2012,06,08,06,16,7.10
2012,06,08,06,17,7.10
2012,06,08,06,18,7.10
2012,06,08,06,19,7.10
2012,06,08,06,20,7.10
2012,06,08,06,21,7.10
2012,06,08,06,22,7.20
2012,06,08,06,23,7.20
2012,06,08,06,24,7.20
2012,06,08,06,25,7.20
2012,06,08,06,26,7.20
2012,06,08,06,27,7.20
2012,06,08,06,28,7.20
2012,06,08,06,29,7.20
2012,06,08,06,30,7.20
2012,06,08,06,31,7.20
2012,06,08,06,32,7.30
2012,06,08,06,33,7.30
2012,06,08,06,34,7.30
2012,06,08,06,35,7.40
2012,06,08,06,36,7.40
2012,06,08,06,37,7.50
2012,06,08,06,38,7.50
2012,06,08,06,39,7.60
2012,06,08,06,40,7.60
2012,06,08,06,41,7.70
2012,06,08,06,42,7.70
2012,06,08,06,43,7.70
2012,06,08,06,44,7.80
2012,06,08,06,45,7.80
2012,06,08,06,46,7.80
2012,06,08,06,47,7.80
2012,06,08,06,48,7.80
2012,06,08,06,49,7.80
2012,06,08,06,50,7.80
2012,06,08,06,51,7.80
2012,06,08,06,52,7.80
2012,06,08,06,53,7.80
2012,06,08,06,54,7.80
2012,06,08,06,55,7.80
2012,06,08,06,56,7.90
2012,06,08,06,57,7.90
2012,06,08,06,58,7.90
2012,06,08,06,59,7.90
2012,06,08,07,00,7.90
2012,06,08,07,01,8.00
2012,06,08,07,02,8.00
2012,06,08,07,03,8.10
2012,06,08,07,04,8.10
2012,06,08,07,05,8.10
2012,06,08,07,06,8.10
2012,06,08,07,07,8.20
2012,06,08,07,08,8.20
2012,06,08,07,09,8.20
2012,06,08,07,10,8.20
2012,06,08,07,11,8.30
2012,06,08,07,12,8.30
2012,06,08,07,13,8.30
2012,06,08,07,14,8.40
2012,06,08,07,15,8.40
2012,06,08,07,16,8.30
2012,06,08,07,17,8.30
2012,06,08,07,18,8.30
2012,06,08,07,19,8.30
2012,06,08,07,20,8.30
2012,06,08,07,21,8.30
2012,06,08,07,22,8.30
2012,06,08,07,23,8.30
2012,06,08,07,24,8.30
2012,06,08,07,25,8.40
2012,06,08,07,26,8.40
2012,06,08,07,27,8.50
2012,06,08,07,28,8.50
2012,06,08,07,29,8.60
2012,06,08,07,30,8.60
2012,06,08,07,31,8.60
2012,06,08,07,32,8.60
2012,06,08,07,33,8.70
2012,06,08,07,34,8.70
2012,06,08,07,35,8.70
2012,06,08,07,36,8.70
2012,06,08,07,37,8.70
2012,06,08,07,38,8.80
2012,06,08,07,39,8.80
2012,06,08,07,40,8.80
2012,06,08,07,41,8.80
2012,06,08,07,42,8.80
2012,06,08,07,43,8.90
2012,06,08,07,44,8.90
2012,06,08,07,45,8.90
2012,06,08,07,46,8.90
2012,06,08,07,47,8.90
2012,06,08,07,48,8.90
2012,06,08,07,49,8.90
2012,06,08,07,50,8.90
2012,06,08,07,51,9.00
2012,06,08,07,52,8.90
2012,06,08,07,53,8.90
2012,06,08,07,54,8.90
2012,06,08,07,55,9.00
2012,06,08,07,56,9.10
2012,06,08,07,57,9.10
2012,06,08,07,58,9.20
2012,06,08,07,59,9.20
2012,06,08,08,00,9.20
2012,06,08,08,01,9.20
2012,06,08,08,02,9.20
2012,06,08,08,03,9.30
2012,06,08,08,04,9.30
2012,06,08,08,05,9.30
2012,06,08,08,06,9.30
2012,06,08,08,07,9.40
2012,06,08,08,08,9.40
2012,06,08,08,09,9.40
2012,06,08,08,10,9.50
2012,06,08,08,11,9.50
2012,06,08,08,12,9.60
2012,06,08,08,13,9.60
2012,06,08,08,14,9.70
2012,06,08,08,15,9.80
2012,06,08,08,16,9.90
2012,06,08,08,17,10.00
2012,06,08,08,18,10.00
2012,06,08,08,19,10.10
2012,06,08,08,20,10.20
2012,06,08,08,21,10.20
2012,06,08,08,22,10.30
2012,06,08,08,23,10.30
2012,06,08,08,24,10.50
2012,06,08,08,25,10.60
2012,06,08,08,26,10.80
2012,06,08,08,27,10.80
2012,06,08,08,28,10.80
2012,06,08,08,29,10.80
2012,06,08,08,30,10.80
2012,06,08,08,31,10.80
2012,06,08,08,32,10.70
2012,06,08,08,33,10.60
2012,06,08,08,34,10.60
2012,06,08,08,35,10.60
2012,06,08,08,36,10.50
2012,06,08,08,37,10.50
2012,06,08,08,38,10.40
2012,06,08,08,39,10.40
2012,06,08,08,40,10.40
2012,06,08,08,41,10.30
2012,06,08,08,42,10.30
2012,06,08,08,43,10.30
2012,06,08,08,44,10.30
2012,06,08,08,45,10.20
2012,06,08,08,46,10.30
2012,06,08,08,47,10.20
2012,06,08,08,48,10.20
2012,06,08,08,49,10.20
2012,06,08,08,50,10.20
2012,06,08,08,51,10.20
2012,06,08,08,52,10.10
2012,06,08,08,53,10.10
2012,06,08,08,54,10.10
2012,06,08,08,55,10.10
2012,06,08,08,56,10.10
2012,06,08,08,57,10.10
2012,06,08,08,58,10.10
2012,06,08,08,59,10.00
2012,06,08,09,00,10.00
2012,06,08,09,01,10.00
2012,06,08,09,02,10.00
2012,06,08,09,03,10.00
2012,06,08,09,04,10.00
2012,06,08,09,05,10.00
2012,06,08,09,06,9.90
2012,06,08,09,07,9.90
2012,06,08,09,08,10.00
2012,06,08,09,09,10.00
2012,06,08,09,10,10.00
2012,06,08,09,11,9.90
2012,06,08,09,12,9.90
2012,06,08,09,13,9.90
2012,06,08,09,14,9.90
2012,06,08,09,15,9.90
2012,06,08,09,16,9.90
2012,06,08,09,17,9.90
2012,06,08,09,18,9.90
2012,06,08,09,19,10.00
2012,06,08,09,20,10.00
2012,06,08,09,21,10.00
2012,06,08,09,22,10.10
2012,06,08,09,23,10.10
2012,06,08,09,24,10.20
2012,06,08,09,25,10.20
2012,06,08,09,26,10.30
2012,06,08,09,27,10.40
2012,06,08,09,28,10.40
2012,06,08,09,29,10.50
2012,06,08,09,30,10.60
2012,06,08,09,31,10.70
2012,06,08,09,32,10.70
2012,06,08,09,33,10.80
2012,06,08,09,34,10.90
2012,06,08,09,35,11.00
2012,06,08,09,36,11.10
2012,06,08,09,37,11.20
2012,06,08,09,38,11.10
2012,06,08,09,39,11.10
2012,06,08,09,40,11.10
2012,06,08,09,41,11.10
2012,06,08,09,42,11.10
2012,06,08,09,43,11.00
2012,06,08,09,44,11.10
2012,06,08,09,45,11.10
2012,06,08,09,46,11.20
2012,06,08,09,47,11.20
2012,06,08,09,48,11.30
2012,06,08,09,49,11.30
2012,06,08,09,50,11.20
2012,06,08,09,51,11.10
2012,06,08,09,52,11.00
2012,06,08,09,53,11.00
2012,06,08,09,54,10.90
2012,06,08,09,55,10.80
2012,06,08,09,56,10.70
2012,06,08,09,57,10.70
2012,06,08,09,58,10.70
2012,06,08,09,59,10.80
2012,06,08,10,00,10.80
2012,06,08,10,01,10.80
2012,06,08,10,02,10.90
2012,06,08,10,03,10.90
2012,06,08,10,04,10.90
2012,06,08,10,05,11.00
2012,06,08,10,06,11.00
2012,06,08,10,07,11.10
2012,06,08,10,08,11.20
2012,06,08,10,09,11.20
2012,06,08,10,10,11.20
2012,06,08,10,11,11.20
2012,06,08,10,12,11.10
2012,06,08,10,13,11.00
2012,06,08,10,14,11.00
2012,06,08,10,15,11.10
2012,06,08,10,16,11.20
2012,06,08,10,17,11.20
2012,06,08,10,18,11.20
2012,06,08,10,19,11.20
2012,06,08,10,20,11.30
2012,06,08,10,21,11.30
2012,06,08,10,22,11.30
2012,06,08,10,23,11.40
2012,06,08,10,24,11.40
2012,06,08,10,25,11.40
2012,06,08,10,26,11.30
2012,06,08,10,27,11.10
2012,06,08,10,28,11.10
2012,06,08,10,29,11.00
2012,06,08,10,30,11.10
2012,06,08,10,31,11.10
2012,06,08,10,32,11.10
2012,06,08,10,33,11.10
2012,06,08,10,34,11.10
2012,06,08,10,35,11.10
2012,06,08,10,36,11.10
2012,06,08,10,37,11.10
2012,06,08,10,38,11.10
2012,06,08,10,39,11.20
2012,06,08,10,40,11.30
2012,06,08,10,41,11.30
2012,06,08,10,42,11.30
2012,06,08,10,43,11.30
2012,06,08,10,44,11.30
2012,06,08,10,45,11.30
2012,06,08,10,46,11.40
2012,06,08,10,47,11.40
2012,06,08,10,48,11.50
2012,06,08,10,49,11.60
2012,06,08,10,50,11.70
2012,06,08,10,51,11.70
2012,06,08,10,52,11.70
2012,06,08,10,53,11.70
2012,06,08,10,54,11.60
2012,06,08,10,55,11.60
2012,06,08,10,56,11.50
2012,06,08,10,57,11.60
2012,06,08,10,58,11.60
2012,06,08,10,59,11.60
2012,06,08,11,00,11.60
2012,06,08,11,01,11.60
2012,06,08,11,02,11.70
2012,06,08,11,03,11.70
2012,06,08,11,04,11.70
2012,06,08,11,05,11.70
2012,06,08,11,06,11.70
2012,06,08,11,07,11.70
2012,06,08,11,08,11.80
2012,06,08,11,09,11.80
2012,06,08,11,10,11.90
2012,06,08,11,11,12.00
2012,06,08,11,12,12.00
2012,06,08,11,13,11.90
2012,06,08,11,14,12.00
2012,06,08,11,15,12.00
2012,06,08,11,16,12.00
2012,06,08,11,17,11.90
2012,06,08,11,18,11.90
2012,06,08,11,19,11.80
2012,06,08,11,20,11.70
2012,06,08,11,21,11.60
2012,06,08,11,22,11.60
2012,06,08,11,23,11.60
2012,06,08,11,24,11.60
2012,06,08,11,25,11.70
2012,06,08,11,26,11.80
2012,06,08,11,27,11.90
2012,06,08,11,28,11.90
2012,06,08,11,29,11.90
2012,06,08,11,30,11.90
2012,06,08,11,31,11.90
2012,06,08,11,32,12.00
2012,06,08,11,33,11.90
2012,06,08,11,34,12.00
2012,06,08,11,35,12.00
2012,06,08,11,36,12.00
2012,06,08,11,37,12.10
2012,06,08,11,38,12.10
2012,06,08,11,39,12.10
2012,06,08,11,40,12.00
2012,06,08,11,41,11.90
2012,06,08,11,42,12.00
2012,06,08,11,43,11.90
2012,06,08,11,44,12.00
2012,06,08,11,45,12.10
2012,06,08,11,46,12.10
2012,06,08,11,47,12.10
2012,06,08,11,48,12.10
2012,06,08,11,49,12.10
2012,06,08,11,50,11.90
2012,06,08,11,51,11.90
2012,06,08,11,52,11.90
2012,06,08,11,53,12.00
2012,06,08,11,54,12.10
2012,06,08,11,55,12.20
2012,06,08,11,56,12.20
2012,06,08,11,57,12.20
2012,06,08,11,58,12.20
2012,06,08,11,59,12.20
2012,06,08,12,00,12.10
2012,06,08,12,01,12.00
2012,06,08,12,02,12.00
2012,06,08,12,03,12.10
2012,06,08,12,04,12.10
2012,06,08,12,05,11.90
2012,06,08,12,06,11.80
2012,06,08,12,07,11.80
2012,06,08,12,08,11.80
2012,06,08,12,09,11.80
2012,06,08,12,10,11.80
2012,06,08,12,11,11.80
2012,06,08,12,12,11.90
2012,06,08,12,13,11.90
2012,06,08,12,14,11.90
2012,06,08,12,15,12.00
2012,06,08,12,16,12.10
2012,06,08,12,17,12.20
2012,06,08,12,18,12.20
2012,06,08,12,19,12.20
2012,06,08,12,20,12.20
2012,06,08,12,21,12.20
2012,06,08,12,22,12.20
2012,06,08,12,23,12.20
2012,06,08,12,24,12.30
2012,06,08,12,25,12.30
2012,06,08,12,26,12.20
2012,06,08,12,27,12.20
2012,06,08,12,28,12.20
2012,06,08,12,29,12.10
2012,06,08,12,30,12.10
2012,06,08,12,31,12.10
2012,06,08,12,32,12.10
2012,06,08,12,33,12.10
2012,06,08,12,34,12.40
2012,06,08,12,35,12.60
2012,06,08,12,36,12.80
2012,06,08,12,37,12.80
2012,06,08,12,38,12.80
2012,06,08,12,39,12.80
2012,06,08,12,40,12.80
2012,06,08,12,41,12.80
2012,06,08,12,42,12.70
2012,06,08,12,43,12.60
2012,06,08,12,44,12.50
2012,06,08,12,45,12.40
2012,06,08,12,46,12.40
2012,06,08,12,47,12.40
2012,06,08,12,48,12.40
2012,06,08,12,49,12.40
2012,06,08,12,50,12.50
2012,06,08,12,51,12.60
2012,06,08,12,52,12.60
2012,06,08,12,53,12.60
2012,06,08,12,54,12.60
2012,06,08,12,55,12.60
2012,06,08,12,56,12.60
2012,06,08,12,57,12.70
2012,06,08,12,58,12.80
2012,06,08,12,59,12.80
2012,06,08,13,00,12.90
2012,06,08,13,01,12.90
2012,06,08,13,02,13.00
2012,06,08,13,03,13.10
2012,06,08,13,04,13.10
2012,06,08,13,05,13.10
2012,06,08,13,06,13.10
2012,06,08,13,07,13.10
2012,06,08,13,08,13.10
2012,06,08,13,09,13.00
2012,06,08,13,10,12.90
2012,06,08,13,11,12.90
2012,06,08,13,12,12.80
2012,06,08,13,13,12.70
2012,06,08,13,14,12.70
2012,06,08,13,15,12.70
2012,06,08,13,16,12.70
2012,06,08,13,17,12.80
2012,06,08,13,18,12.80
2012,06,08,13,19,12.80
2012,06,08,13,20,12.80
2012,06,08,13,21,12.80
2012,06,08,13,22,12.80
2012,06,08,13,23,12.80
2012,06,08,13,24,12.90
2012,06,08,13,25,12.90
2012,06,08,13,26,12.90
2012,06,08,13,27,12.90
2012,06,08,13,28,12.70
2012,06,08,13,29,12.60
2012,06,08,13,30,12.60
2012,06,08,13,31,12.60
2012,06,08,13,32,12.70
2012,06,08,13,33,12.70
2012,06,08,13,34,12.70
2012,06,08,13,35,12.70
2012,06,08,13,36,12.80
2012,06,08,13,37,13.00
2012,06,08,13,38,13.00
2012,06,08,13,39,13.00
2012,06,08,13,40,13.10
2012,06,08,13,41,13.20
2012,06,08,13,42,13.20
2012,06,08,13,43,13.40
2012,06,08,13,44,13.50
2012,06,08,13,45,13.50
2012,06,08,13,46,13.60
2012,06,08,13,47,13.60
2012,06,08,13,48,13.50
2012,06,08,13,49,13.30
2012,06,08,13,50,13.30
2012,06,08,13,51,13.40
2012,06,08,13,52,13.50
2012,06,08,13,53,13.50
2012,06,08,13,54,13.40
2012,06,08,13,55,13.20
2012,06,08,13,56,13.10
2012,06,08,13,57,13.00
2012,06,08,13,58,12.90
2012,06,08,13,59,12.90
2012,06,08,14,00,13.10
2012,06,08,14,01,13.20
2012,06,08,14,02,13.30
2012,06,08,14,03,13.40
2012,06,08,14,04,13.50
2012,06,08,14,05,13.60
2012,06,08,14,06,13.80
2012,06,08,14,07,14.10
2012,06,08,14,08,14.20
2012,06,08,14,09,14.10
2012,06,08,14,10,14.00
2012,06,08,14,11,13.80
2012,06,08,14,12,13.70
2012,06,08,14,13,13.50
2012,06,08,14,14,13.40
2012,06,08,14,15,13.40
2012,06,08,14,16,13.40
2012,06,08,14,17,13.40
2012,06,08,14,18,13.30
2012,06,08,14,19,13.30
2012,06,08,14,20,13.30
2012,06,08,14,21,13.40
2012,06,08,14,22,13.30
2012,06,08,14,23,13.20
2012,06,08,14,24,13.10
2012,06,08,14,25,13.10
2012,06,08,14,26,13.00
2012,06,08,14,27,13.00
2012,06,08,14,28,13.10
2012,06,08,14,29,13.10
2012,06,08,14,30,13.10
2012,06,08,14,31,13.10
2012,06,08,14,32,13.10
2012,06,08,14,33,13.20
2012,06,08,14,34,13.20
2012,06,08,14,35,13.30
2012,06,08,14,36,13.30
2012,06,08,14,37,13.20
2012,06,08,14,38,13.20
2012,06,08,14,39,13.20
2012,06,08,14,40,13.20
2012,06,08,14,41,13.10
2012,06,08,14,42,13.00
2012,06,08,14,43,13.00
2012,06,08,14,44,12.90
2012,06,08,14,45,12.90
2012,06,08,14,46,13.00
2012,06,08,14,47,13.00
2012,06,08,14,48,13.00
2012,06,08,14,49,13.10
2012,06,08,14,50,13.10
2012,06,08,14,51,13.20
2012,06,08,14,52,13.30
2012,06,08,14,53,13.30
2012,06,08,14,54,13.40
2012,06,08,14,55,13.60
2012,06,08,14,56,13.70
2012,06,08,14,57,13.80
2012,06,08,14,58,13.80
2012,06,08,14,59,13.80
2012,06,08,15,00,13.90
2012,06,08,15,01,14.00
2012,06,08,15,02,14.00
2012,06,08,15,03,14.00
2012,06,08,15,04,14.00
2012,06,08,15,05,14.00
2012,06,08,15,06,14.20
2012,06,08,15,07,14.30
2012,06,08,15,08,14.40
2012,06,08,15,09,14.40
2012,06,08,15,10,14.50
2012,06,08,15,11,14.50
2012,06,08,15,12,14.60
2012,06,08,15,13,14.60
2012,06,08,15,14,14.60
2012,06,08,15,15,14.60
2012,06,08,15,16,14.60
2012,06,08,15,17,14.60
2012,06,08,15,18,14.70
2012,06,08,15,19,14.70
2012,06,08,15,20,14.80
2012,06,08,15,21,14.90
2012,06,08,15,22,15.00
2012,06,08,15,23,15.00
2012,06,08,15,24,15.00
2012,06,08,15,25,15.00
2012,06,08,15,26,15.10
2012,06,08,15,27,15.20
2012,06,08,15,28,15.20
2012,06,08,15,29,15.10
2012,06,08,15,30,15.00
2012,06,08,15,31,15.00
2012,06,08,15,32,14.90
2012,06,08,15,33,14.70
2012,06,08,15,34,14.70
2012,06,08,15,35,14.70
2012,06,08,15,36,14.80
2012,06,08,15,37,14.90
2012,06,08,15,38,15.00
2012,06,08,15,39,15.00
2012,06,08,15,40,15.00
2012,06,08,15,41,15.00
2012,06,08,15,42,15.00
2012,06,08,15,43,15.00
2012,06,08,15,44,15.00
2012,06,08,15,45,15.00
2012,06,08,15,46,15.10
2012,06,08,15,47,15.30
2012,06,08,15,48,15.40
2012,06,08,15,49,15.40
2012,06,08,15,50,15.50
2012,06,08,15,51,15.70
2012,06,08,15,52,15.80
2012,06,08,15,53,15.80
2012,06,08,15,54,15.80
2012,06,08,15,55,15.70
2012,06,08,15,56,15.70
2012,06,08,15,57,15.70
2012,06,08,15,58,15.60
2012,06,08,15,59,15.50
2012,06,08,16,00,15.40
2012,06,08,16,01,15.50
2012,06,08,16,02,15.60
2012,06,08,16,03,15.50
2012,06,08,16,04,15.20
2012,06,08,16,05,15.00
2012,06,08,16,06,15.00
2012,06,08,16,07,14.80
2012,06,08,16,08,14.60
2012,06,08,16,09,14.50
2012,06,08,16,10,14.40
2012,06,08,16,11,14.30
2012,06,08,16,12,14.20
2012,06,08,16,13,14.20
2012,06,08,16,14,14.20
2012,06,08,16,15,14.30
2012,06,08,16,16,14.40
2012,06,08,16,17,14.40
2012,06,08,16,18,14.30
2012,06,08,16,19,14.30
2012,06,08,16,20,14.20
2012,06,08,16,21,14.10
2012,06,08,16,22,14.20
2012,06,08,16,23,14.10
2012,06,08,16,24,13.90
2012,06,08,16,25,14.00
2012,06,08,16,26,14.10
2012,06,08,16,27,14.10
2012,06,08,16,28,14.20
2012,06,08,16,29,14.20
2012,06,08,16,30,14.30
2012,06,08,16,31,14.40
2012,06,08,16,32,14.50
2012,06,08,16,33,14.40
2012,06,08,16,34,14.30
2012,06,08,16,35,14.10
2012,06,08,16,36,14.00
2012,06,08,16,37,13.80
2012,06,08,16,38,13.70
2012,06,08,16,39,13.60
2012,06,08,16,40,13.50
2012,06,08,16,41,13.30
2012,06,08,16,42,13.30
2012,06,08,16,43,13.30
2012,06,08,16,44,13.20
2012,06,08,16,45,13.20
2012,06,08,16,46,13.30
2012,06,08,16,47,13.30
2012,06,08,16,48,13.30
2012,06,08,16,49,13.40
2012,06,08,16,50,13.40
2012,06,08,16,51,13.40
2012,06,08,16,52,13.50
2012,06,08,16,53,13.50
2012,06,08,16,54,13.60
2012,06,08,16,55,13.70
2012,06,08,16,56,13.90
2012,06,08,16,57,14.00
2012,06,08,16,58,14.20
2012,06,08,16,59,14.20
2012,06,08,17,00,14.20
2012,06,08,17,01,14.30
2012,06,08,17,02,14.40
2012,06,08,17,03,14.60
2012,06,08,17,04,14.60
2012,06,08,17,05,14.80
2012,06,08,17,06,14.80
2012,06,08,17,07,14.80
2012,06,08,17,08,14.80
2012,06,08,17,09,14.80
2012,06,08,17,10,14.70
2012,06,08,17,11,14.70
2012,06,08,17,12,14.60
2012,06,08,17,13,14.60
2012,06,08,17,14,14.60
2012,06,08,17,15,14.60
2012,06,08,17,16,14.60
2012,06,08,17,17,14.80
2012,06,08,17,18,14.90
2012,06,08,17,19,15.00
2012,06,08,17,20,15.10
2012,06,08,17,21,15.20
2012,06,08,17,22,15.40
2012,06,08,17,23,15.50
2012,06,08,17,24,15.70
2012,06,08,17,25,15.80
2012,06,08,17,26,15.70
2012,06,08,17,27,15.70
2012,06,08,17,28,15.60
2012,06,08,17,29,15.50
2012,06,08,17,30,15.40
2012,06,08,17,31,15.30
2012,06,08,17,32,15.20
2012,06,08,17,33,15.20
2012,06,08,17,34,15.10
2012,06,08,17,35,15.00
2012,06,08,17,36,15.00
2012,06,08,17,37,14.90
2012,06,08,17,38,14.70
2012,06,08,17,39,14.60
2012,06,08,17,40,14.50
2012,06,08,17,41,14.30
2012,06,08,17,42,14.20
2012,06,08,17,43,14.10
2012,06,08,17,44,14.00
2012,06,08,17,45,14.00
2012,06,08,17,46,13.90
2012,06,08,17,47,13.80
2012,06,08,17,48,13.80
2012,06,08,17,49,13.80
2012,06,08,17,50,13.80
2012,06,08,17,51,13.80
2012,06,08,17,52,13.80
2012,06,08,17,53,13.80
2012,06,08,17,54,13.80
2012,06,08,17,55,13.70
2012,06,08,17,56,13.70
2012,06,08,17,57,13.70
2012,06,08,17,58,13.70
2012,06,08,17,59,13.80
2012,06,08,18,00,13.80
2012,06,08,18,01,13.80
2012,06,08,18,02,13.80
2012,06,08,18,03,13.90
2012,06,08,18,04,13.90
2012,06,08,18,05,13.90
2012,06,08,18,06,13.90
2012,06,08,18,07,13.90
2012,06,08,18,08,14.00
2012,06,08,18,09,14.00
2012,06,08,18,10,14.10
2012,06,08,18,11,14.10
2012,06,08,18,12,14.10